Precipitable_Water
0.48 0.46 0.44 0.46 0.43 0.54 0.46 0.45 0.63 0.61 0.67 0.82 0.90 0.86 0.82 0.83 0.78 0.67 0.94 1.02 1.09 1.22 1.38 1.41 1.58 1.66 1.64 1.65 1.69 1.72 1.75 1.78 1.78 1.80 1.78 1.76 1.74 1.75 1.81 1.84 1.88 1.89 1.92 1.82 1.72 1.71 1.74 1.70 1.63
0.42 0.42 0.42 0.43 0.42 0.41 0.38 0.51 0.54 0.64 0.75 0.83 0.86 0.88 0.86 0.82 0.95 0.98 0.94 1.01 1.04 1.09 1.33 1.30 1.51 1.61 1.60 1.62 1.64 1.68 1.73 1.74 1.76 1.82 1.78 1.76 1.73 1.83 1.86 1.94 1.84 1.87 1.85 1.80 1.79 1.83 1.84 1.70 1.61
0.42 0.44 0.36 0.36 0.48 0.41 0.40 0.52 0.56 0.68 0.77 0.78 0.75 0.81 0.77 0.74 0.85 0.87 0.94 0.96 0.96 0.96 1.05 1.25 1.35 1.49 1.57 1.57 1.60 1.60 1.66 1.69 1.70 1.72 1.75 1.79 1.78 1.86 1.96 2.01 1.93 1.90 1.89 1.90 1.89 1.92 1.83 1.71 1.59
0.41 0.41 0.44 0.35 0.31 0.41 0.46 0.50 0.52 0.55 0.56 0.64 0.61 0.54 0.64 0.72 0.72 0.76 0.82 0.85 0.86 0.90 0.93 1.06 1.19 1.29 1.45 1.52 1.54 1.56 1.58 1.62 1.63 1.70 1.73 1.79 1.82 1.86 1.89 2.02 1.90 1.92 1.94 1.88 1.96 1.98 1.83 1.70 1.54
0.38 0.35 0.28 0.26 0.28 0.34 0.38 0.40 0.46 0.42 0.43 0.48 0.54 0.45 0.46 0.53 0.61 0.66 0.71 0.78 0.74 0.77 0.88 0.88 1.08 1.08 1.19 1.35 1.45 1.49 1.53 1.54 1.56 1.58 1.64 1.72 1.81 1.88 1.96 1.95 2.03 1.99 1.90 1.93 1.96 1.93 1.84 1.71 1.54
0.27 0.33 0.23 0.19 0.24 0.28 0.32 0.35 0.33 0.32 0.33 0.34 0.34 0.32 0.32 0.41 0.43 0.49 0.54 0.57 0.69 0.74 0.79 0.88 0.86 1.07 1.00 1.11 1.29 1.41 1.50 1.48 1.47 1.49 1.56 1.60 1.67 1.78 1.92 1.98 1.96 1.95 1.95 2.02 1.92 1.94 1.82 1.71 1.57
0.24 0.23 0.19 0.20 0.20 0.20 0.21 0.24 0.21 0.21 0.21 0.20 0.27 0.24 0.25 0.28 0.34 0.38 0.40 0.40 0.47 0.54 0.61 0.73 0.73 0.76 0.94 0.97 1.02 1.24 1.39 1.48 1.48 1.42 1.44 1.52 1.59 1.71 1.82 1.94 1.91 1.89 1.88 1.91 1.91 1.99 1.85 1.74 1.73
0.21 0.20 0.17 0.18 0.13 0.12 0.18 0.17 0.18 0.18 0.16 0.22 0.23 0.19 0.20 0.23 0.28 0.29 0.29 0.30 0.33 0.36 0.44 0.54 0.63 0.66 0.71 0.74 0.92 0.99 1.17 1.41 1.54 1.47 1.41 1.45 1.52 1.57 1.78 1.91 1.91 1.92 1.89 1.90 1.96 1.88 1.74 1.80 1.61
0.23 0.14 0.13 0.14 0.12 0.12 0.17 0.14 0.17 0.19 0.17 0.17 0.18 0.19 0.20 0.23 0.25 0.25 0.23 0.22 0.23 0.27 0.32 0.37 0.49 0.54 0.61 0.60 0.66 0.80 1.00 1.09 1.39 1.48 1.42 1.37 1.49 1.50 1.57 1.79 1.90 1.89 1.84 1.85 1.83 1.79 1.69 1.70 1.70
0.15 0.12 0.12 0.15 0.15 0.14 0.16 0.15 0.15 0.17 0.17 0.17 0.18 0.20 0.21 0.22 0.21 0.18 0.17 0.16 0.17 0.20 0.24 0.29 0.35 0.44 0.50 0.51 0.55 0.62 0.80 0.91 1.08 1.28 1.39 1.39 1.42 1.50 1.53 1.63 1.83 1.85 1.80 1.79 1.79 1.70 1.74 1.73 1.79
0.15 0.11 0.15 0.16 0.16 0.16 0.14 0.14 0.16 0.16 0.15 0.14 0.15 0.17 0.18 0.18 0.18 0.17 0.15 0.16 0.16 0.18 0.21 0.23 0.26 0.35 0.39 0.44 0.49 0.52 0.57 0.76 0.91 1.09 1.29 1.36 1.38 1.41 1.47 1.57 1.69 1.78 1.83 1.77 1.70 1.68 1.66 1.66 1.73
0.12 0.15 0.15 0.14 0.14 0.15 0.12 0.14 0.12 0.15 0.14 0.16 0.18 0.17 0.17 0.16 0.17 0.16 0.16 0.16 0.16 0.17 0.20 0.23 0.24 0.30 0.33 0.37 0.43 0.47 0.50 0.56 0.74 0.88 1.11 1.29 1.33 1.37 1.40 1.48 1.59 1.70 1.80 1.71 1.61 1.66 1.56 1.65 1.72
0.13 0.13 0.13 0.12 0.13 0.13 0.14 0.12 0.13 0.13 0.15 0.18 0.17 0.18 0.17 0.17 0.16 0.16 0.17 0.17 0.17 0.17 0.20 0.24 0.24 0.28 0.29 0.31 0.38 0.42 0.46 0.51 0.58 0.75 0.88 1.13 1.23 1.33 1.37 1.42 1.54 1.62 1.72 1.73 1.67 1.54 1.54 1.69 1.70
0.14 0.13 0.12 0.13 0.13 0.12 0.13 0.13 0.15 0.15 0.16 0.17 0.17 0.17 0.18 0.17 0.17 0.17 0.18 0.17 0.18 0.19 0.20 0.25 0.24 0.27 0.30 0.29 0.33 0.37 0.43 0.48 0.52 0.60 0.73 0.95 1.12 1.28 1.35 1.38 1.45 1.55 1.63 1.68 1.75 1.68 1.66 1.70 1.68
0.13 0.11 0.12 0.11 0.12 0.11 0.14 0.14 0.13 0.14 0.16 0.16 0.16 0.17 0.17 0.18 0.19 0.18 0.20 0.20 0.19 0.19 0.21 0.25 0.24 0.28 0.29 0.28 0.29 0.32 0.37 0.44 0.47 0.55 0.59 0.73 0.98 1.15 1.32 1.35 1.40 1.46 1.57 1.66 1.69 1.72 1.72 1.58 1.61
0.09 0.10 0.09 0.11 0.11 0.13 0.13 0.10 0.14 0.14 0.14 0.15 0.16 0.17 0.18 0.18 0.18 0.19 0.21 0.22 0.20 0.20 0.22 0.26 0.28 0.29 0.31 0.27 0.27 0.29 0.33 0.39 0.45 0.51 0.55 0.61 0.72 0.99 1.17 1.29 1.36 1.44 1.50 1.56 1.62 1.65 1.73 1.52 1.46
0.10 0.08 0.09 0.10 0.12 0.11 0.12 0.10 0.14 0.16 0.14 0.14 0.15 0.16 0.17 0.18 0.19 0.20 0.21 0.22 0.21 0.22 0.24 0.26 0.29 0.30 0.31 0.29 0.28 0.28 0.31 0.34 0.42 0.48 0.53 0.55 0.63 0.79 1.07 1.20 1.30 1.38 1.45 1.51 1.58 1.62 1.74 1.52 1.42
0.10 0.10 0.10 0.10 0.12 0.12 0.11 0.12 0.13 0.16 0.15 0.15 0.16 0.16 0.16 0.17 0.17 0.19 0.21 0.23 0.25 0.26 0.27 0.29 0.30 0.31 0.32 0.29 0.28 0.29 0.30 0.33 0.37 0.45 0.49 0.54 0.56 0.70 0.98 1.12 1.22 1.32 1.37 1.45 1.47 1.52 1.64 1.54 1.45
0.14 0.13 0.11 0.12 0.14 0.13 0.13 0.13 0.14 0.15 0.16 0.15 0.14 0.14 0.14 0.15 0.16 0.17 0.19 0.23 0.25 0.27 0.29 0.29 0.29 0.31 0.31 0.29 0.29 0.28 0.28 0.30 0.33 0.40 0.47 0.52 0.55 0.60 0.71 0.92 1.14 1.25 1.30 1.38 1.47 1.45 1.49 1.52 1.53
0.15 0.14 0.13 0.13 0.15 0.14 0.14 0.13 0.15 0.15 0.15 0.15 0.15 0.17 0.17 0.17 0.17 0.17 0.19 0.21 0.25 0.26 0.28 0.32 0.31 0.32 0.32 0.29 0.30 0.31 0.30 0.30 0.33 0.38 0.44 0.49 0.53 0.56 0.62 0.77 1.06 1.18 1.24 1.34 1.40 1.41 1.47 1.55 1.55
0.16 0.14 0.13 0.12 0.13 0.14 0.15 0.13 0.14 0.14 0.15 0.15 0.17 0.17 0.18 0.16 0.16 0.17 0.17 0.21 0.22 0.23 0.26 0.30 0.32 0.31 0.32 0.34 0.31 0.33 0.31 0.30 0.31 0.35 0.39 0.46 0.51 0.54 0.57 0.68 0.94 1.14 1.20 1.26 1.34 1.39 1.37 1.44 1.55
0.16 0.17 0.15 0.13 0.13 0.11 0.15 0.11 0.17 0.15 0.15 0.17 0.18 0.18 0.16 0.17 0.18 0.17 0.18 0.19 0.20 0.22 0.25 0.30 0.33 0.31 0.33 0.33 0.32 0.32 0.29 0.27 0.30 0.34 0.39 0.44 0.49 0.54 0.56 0.62 0.82 1.05 1.14 1.21 1.29 1.37 1.37 1.38 1.43
0.17 0.18 0.16 0.15 0.15 0.15 0.15 0.13 0.19 0.17 0.19 0.18 0.20 0.19 0.17 0.17 0.17 0.18 0.18 0.19 0.20 0.22 0.24 0.30 0.35 0.33 0.36 0.34 0.34 0.31 0.29 0.29 0.31 0.35 0.39 0.43 0.47 0.54 0.53 0.60 0.70 0.93 1.07 1.15 1.25 1.31 1.36 1.39 1.40
0.20 0.19 0.19 0.18 0.16 0.15 0.15 0.14 0.20 0.20 0.18 0.20 0.20 0.19 0.17 0.17 0.19 0.18 0.19 0.19 0.20 0.23 0.25 0.30 0.34 0.33 0.32 0.32 0.34 0.32 0.31 0.31 0.31 0.35 0.37 0.43 0.47 0.49 0.50 0.57 0.62 0.81 1.01 1.11 1.19 1.24 1.33 1.33 1.40
0.21 0.20 0.16 0.14 0.15 0.14 0.18 0.15 0.21 0.23 0.21 0.20 0.19 0.21 0.18 0.19 0.18 0.18 0.18 0.19 0.20 0.22 0.26 0.28 0.32 0.30 0.30 0.30 0.32 0.31 0.32 0.31 0.33 0.36 0.35 0.37 0.41 0.42 0.49 0.53 0.57 0.70 0.96 1.07 1.14 1.21 1.27 1.32 1.35
0.19 0.19 0.16 0.13 0.13 0.14 0.19 0.15 0.21 0.24 0.22 0.24 0.25 0.23 0.18 0.18 0.18 0.18 0.19 0.21 0.21 0.23 0.26 0.29 0.30 0.28 0.29 0.31 0.30 0.32 0.32 0.31 0.33 0.36 0.38 0.41 0.41 0.45 0.51 0.51 0.54 0.64 0.92 1.03 1.10 1.17 1.22 1.28 1.34
0.21 0.19 0.20 0.18 0.20 0.16 0.20 0.24 0.30 0.24 0.26 0.26 0.25 0.22 0.17 0.17 0.18 0.18 0.20 0.22 0.23 0.24 0.26 0.30 0.30 0.28 0.29 0.30 0.31 0.31 0.31 0.31 0.32 0.38 0.43 0.43 0.48 0.46 0.48 0.49 0.50 0.56 0.75 0.98 1.09 1.11 1.17 1.27 1.32
0.22 0.23 0.20 0.22 0.15 0.13 0.18 0.22 0.20 0.22 0.24 0.25 0.25 0.22 0.18 0.17 0.18 0.18 0.19 0.22 0.23 0.24 0.27 0.30 0.31 0.31 0.31 0.31 0.30 0.29 0.31 0.35 0.36 0.42 0.42 0.44 0.47 0.47 0.46 0.46 0.47 0.51 0.63 0.93 1.08 1.07 1.14 1.20 1.28
0.21 0.22 0.24 0.22 0.20 0.15 0.15 0.19 0.31 0.24 0.26 0.26 0.28 0.25 0.19 0.17 0.18 0.18 0.19 0.21 0.22 0.24 0.27 0.27 0.29 0.31 0.32 0.33 0.35 0.35 0.35 0.38 0.42 0.43 0.45 0.45 0.47 0.45 0.44 0.45 0.45 0.48 0.58 0.82 1.01 1.06 1.09 1.15 1.19
0.24 0.24 0.24 0.19 0.20 0.20 0.18 0.18 0.33 0.28 0.28 0.30 0.29 0.26 0.21 0.18 0.18 0.19 0.21 0.21 0.21 0.22 0.24 0.24 0.27 0.28 0.27 0.32 0.33 0.36 0.40 0.43 0.42 0.43 0.46 0.46 0.44 0.44 0.43 0.44 0.45 0.46 0.54 0.69 0.89 1.00 1.04 1.09 1.12
Wind_Speed
4 3 4 6 5 2 1 5 6 6 7 5 6 5 5 7 11 11 14 14 15 15 15 15 13 11 10 10 9 8 8 7 7 7 9 9 10 11 11 11 11 10 12 12 12 11 11 10 10
2 3 4 5 8 7 3 3 2 3 6 7 5 8 7 9 10 12 13 15 15 14 12 10 12 9 10 10 11 9 9 7 7 5 5 9 11 11 13 13 11 11 11 12 12 11 11 11 11
2 3 2 3 2 2 3 4 2 3 4 7 7 6 9 11 11 14 14 14 14 14 14 12 12 12 12 12 11 10 10 9 7 6 5 7 10 12 13 13 12 12 14 12 11 12 11 12 12
2 0 4 7 9 7 5 4 4 5 2 3 6 5 7 9 12 14 15 16 16 16 16 16 15 15 15 15 14 12 11 9 8 7 7 7 9 13 14 13 11 15 13 13 14 12 12 12 12
1 3 7 8 10 8 6 4 2 0 3 4 8 7 9 11 13 15 16 17 18 19 19 19 19 18 17 17 16 15 13 12 11 11 10 9 10 10 14 12 11 13 14 13 10 11 14 12 12
2 5 7 8 9 7 5 4 3 3 3 6 5 7 9 12 15 17 18 20 21 21 21 21 20 21 20 18 17 17 16 15 14 13 13 12 12 13 13 14 13 14 14 14 10 8 14 14 13
6 7 9 10 8 6 3 3 5 4 6 8 9 8 10 14 17 20 22 23 23 24 24 24 23 23 19 21 20 19 19 18 17 16 14 15 15 14 16 15 14 15 16 15 12 12 14 13 14
9 9 10 7 5 6 3 4 7 8 7 8 13 13 14 17 19 21 23 25 26 27 27 26 27 26 24 23 22 21 20 19 20 19 17 16 16 17 16 18 16 16 17 17 11 15 14 12 16
6 9 9 7 6 5 3 5 7 7 8 10 10 11 14 18 20 22 24 26 28 30 30 30 29 28 27 26 25 24 23 21 20 21 20 19 18 17 18 18 18 17 18 17 16 16 15 15 17
10 10 10 10 9 7 6 6 6 7 8 10 11 12 15 18 20 22 24 27 29 31 32 32 32 31 30 28 27 26 26 24 22 22 22 21 20 19 19 20 18 17 17 17 17 17 16 17 17
15 14 12 11 10 8 7 7 8 9 9 13 13 15 17 19 20 22 24 26 28 30 32 34 35 34 33 32 30 28 28 27 26 24 23 23 22 21 22 22 20 19 19 19 19 19 19 18 19
17 14 12 11 9 8 9 8 10 11 11 13 15 17 19 21 22 23 25 26 28 29 31 32 34 35 35 34 33 31 29 28 28 26 25 24 22 22 22 24 24 22 20 21 20 20 20 19 21
15 13 12 11 10 10 9 10 9 11 13 14 16 18 21 22 24 25 26 27 29 30 30 30 32 34 35 36 35 34 32 30 28 28 27 27 25 23 22 23 26 25 22 22 22 22 21 20 21
11 12 11 10 10 11 9 9 12 12 14 16 18 20 22 24 25 26 27 29 30 31 30 29 30 32 34 36 36 36 35 33 31 30 29 28 27 26 25 25 24 27 24 24 24 23 23 21 20
11 11 9 10 10 10 12 8 12 13 15 17 20 21 23 25 26 27 28 30 31 32 31 29 28 30 31 34 36 37 37 35 33 32 31 29 28 27 23 24 24 27 26 23 26 26 24 24 23
6 5 5 9 10 10 11 12 12 14 16 19 21 23 24 26 27 28 29 31 32 33 32 30 28 29 30 32 35 37 38 37 36 33 32 31 29 29 28 24 23 24 26 26 27 29 27 25 25
7 9 10 5 11 11 11 15 13 15 18 21 23 25 26 27 29 29 30 31 33 34 32 29 27 27 28 30 32 35 37 37 37 36 33 31 30 29 29 27 25 25 26 25 26 30 25 27 26
11 11 9 11 11 12 13 14 14 16 18 21 24 26 28 29 31 31 32 32 34 33 30 27 25 26 26 28 30 33 35 37 37 37 35 33 31 30 29 29 27 25 25 26 28 29 30 29 28
11 10 9 11 12 14 12 14 16 17 18 21 25 28 30 30 32 32 32 32 33 32 28 27 26 25 24 25 27 30 33 36 37 37 36 35 33 31 31 31 29 26 26 27 28 26 31 31 31
14 13 12 8 10 13 16 16 17 17 20 22 27 29 30 32 34 34 33 32 31 31 27 26 25 23 23 23 24 27 31 34 36 37 37 36 34 32 32 30 31 29 26 27 23 30 23 29 35
12 15 13 10 14 11 20 10 15 18 21 23 26 29 30 32 35 35 34 31 31 29 27 25 23 24 21 20 21 23 27 31 34 36 37 36 35 33 32 31 31 28 28 28 25 25 27 26 30
11 16 10 10 12 12 18 16 14 19 22 24 28 31 31 32 34 35 34 31 31 30 26 24 22 22 19 18 17 19 23 27 32 35 36 36 35 35 33 32 31 32 30 29 28 21 26 27 26
13 14 10 9 10 14 14 14 18 18 26 27 29 31 31 32 34 35 34 32 31 30 27 24 21 19 16 14 14 16 20 24 29 33 34 35 34 35 33 33 32 33 31 29 29 28 27 27 27
14 11 7 8 9 8 15 15 16 23 26 28 28 31 32 32 34 35 34 32 31 30 30 26 21 17 14 12 12 14 17 20 26 30 33 34 35 34 33 32 32 32 32 30 30 29 29 31 29
16 18 7 7 6 11 14 13 17 23 26 27 29 30 32 32 33 34 34 32 31 31 31 28 23 17 11 10 10 11 14 17 22 26 30 33 34 34 33 32 32 32 32 31 30 28 27 30 31
13 13 11 9 11 14 9 13 18 21 24 26 28 30 30 31 32 33 33 32 31 31 30 30 27 19 13 10 9 9 11 14 19 24 28 31 32 33 33 31 31 31 30 31 29 28 29 30 31
11 11 11 10 8 10 10 13 15 19 25 28 29 30 30 30 32 33 33 31 30 29 29 30 28 24 18 13 10 9 9 10 16 21 25 29 31 31 31 30 30 31 31 30 30 27 23 24 29
10 11 9 9 11 11 12 13 16 22 25 27 29 29 29 30 31 32 32 31 29 28 27 28 27 26 22 18 13 9 6 5 10 17 21 25 28 29 30 30 29 29 29 30 30 29 28 26 25
8 7 9 9 8 11 12 12 15 20 24 27 28 28 29 29 29 30 30 30 29 28 27 26 26 26 25 22 17 12 7 4 6 12 18 23 26 27 28 28 27 28 27 29 29 27 26 22 21
11 10 9 9 8 10 10 12 13 18 22 25 27 27 27 27 28 28 29 29 29 28 27 26 25 25 25 24 20 16 12 7 3 8 14 19 23 25 26 26 26 27 26 26 28 24 25 24 23
Wind_Direction
286 256 246 244 224 272 323 265 263 264 249 250 256 226 209 254 257 251 276 282 289 287 289 278 288 277 284 295 302 306 313 311 301 288 256 234 224 216 210 204 199 194 192 188 185 184 184 181 177
297 272 266 259 240 188 239 245 278 265 215 223 250 239 258 255 265 258 276 287 287 290 298 289 286 284 283 295 297 297 303 303 304 290 268 233 224 219 214 208 203 197 194 185 184 184 182 182 176
343 346 261 260 31 49 193 220 210 197 225 240 244 258 257 266 271 272 278 283 286 287 286 293 292 291 281 287 296 292 293 291 289 281 275 244 230 221 215 211 214 213 200 193 187 182 181 178 175
286 195 58 99 93 77 113 201 223 212 284 255 234 263 260 276 271 279 278 280 286 283 289 289 292 290 283 281 283 285 282 279 278 275 269 255 236 226 222 226 224 203 209 213 214 191 181 178 177
38 61 107 98 95 95 86 75 97 226 309 317 271 274 275 281 281 279 281 281 283 284 285 289 285 283 287 280 276 274 273 273 270 267 266 260 243 232 224 220 206 211 209 205 189 202 193 188 187
71 130 109 103 104 96 68 41 37 29 348 305 308 288 290 288 289 284 283 283 282 283 282 288 280 285 277 279 275 271 269 268 268 264 263 258 249 234 229 227 229 218 209 205 218 204 193 194 203
83 103 102 108 105 73 38 13 0 354 329 330 303 298 291 300 295 290 285 284 282 282 281 278 281 279 282 272 273 272 266 264 262 261 262 256 249 239 232 229 229 223 216 220 220 227 203 210 212
84 98 105 105 88 73 41 22 1 344 337 317 312 302 298 302 300 296 291 286 283 281 280 278 277 276 275 273 272 267 266 263 257 259 258 257 248 239 236 232 232 230 224 229 236 207 204 213 195
96 87 79 71 72 91 46 40 14 2 358 349 332 324 311 307 305 303 299 292 286 282 279 277 274 274 272 270 268 264 261 260 260 256 254 253 247 241 237 236 235 233 227 224 219 210 212 203 196
86 83 64 65 70 71 36 28 1 345 350 343 337 328 322 318 316 313 308 301 295 287 280 277 273 270 269 267 265 263 258 258 255 255 251 250 246 242 239 235 233 229 222 221 214 214 212 207 205
74 81 79 67 57 54 44 21 354 346 345 340 335 330 327 323 322 320 317 314 305 293 284 277 272 268 266 264 262 260 258 256 253 252 251 248 245 245 240 235 231 226 224 221 219 217 214 212 208
78 74 72 64 45 35 22 13 7 351 350 339 334 328 325 324 323 321 320 319 316 306 292 281 274 267 264 261 259 258 256 254 251 250 247 244 244 244 241 237 232 230 226 221 218 215 215 213 210
74 72 66 56 45 31 18 9 4 357 344 336 332 327 325 324 322 320 319 319 319 314 303 289 278 270 264 260 257 255 253 251 249 246 245 244 244 243 242 238 232 228 227 223 219 217 214 212 211
80 76 65 50 39 24 14 8 348 346 339 333 328 326 324 323 322 319 319 318 317 316 309 297 284 273 266 259 256 252 249 249 246 244 243 243 243 242 240 237 233 226 227 225 218 218 215 212 210
84 73 59 35 23 14 359 350 352 352 341 334 329 326 325 324 321 320 319 318 316 314 309 301 288 278 269 262 256 251 247 246 243 242 241 241 240 237 240 236 235 225 226 223 223 216 215 213 211
55 21 2 19 5 5 353 16 355 347 340 337 332 328 326 325 324 320 319 318 318 315 310 302 291 281 273 265 256 249 245 243 241 239 239 238 239 237 234 233 231 226 225 225 219 220 218 214 214
36 20 14 23 2 355 348 348 354 344 340 338 336 333 328 327 325 322 320 320 320 317 311 304 294 285 276 268 257 249 243 240 238 237 236 236 235 234 232 232 231 226 225 224 223 216 215 215 215
13 11 11 13 9 351 336 333 346 343 338 340 340 337 333 330 327 325 321 320 321 318 312 306 299 291 281 270 258 249 242 238 236 235 234 234 233 232 230 230 230 228 226 223 222 222 219 217 215
26 14 8 14 10 354 354 342 342 345 342 342 343 343 340 337 335 330 324 320 320 320 313 308 303 295 287 273 259 248 242 237 234 232 233 233 232 232 231 229 229 227 225 223 223 223 221 215 215
20 14 13 20 8 0 353 345 349 353 346 344 344 342 340 339 340 336 330 326 323 321 315 310 306 299 291 280 261 249 241 237 233 231 231 230 231 231 229 228 225 226 226 220 226 221 217 215 213
23 11 6 359 350 349 349 348 5 4 353 349 347 347 345 345 345 344 341 337 332 329 320 314 307 305 294 282 264 249 242 236 230 229 229 229 229 229 228 227 223 224 222 220 225 223 222 213 214
8 3 356 355 353 7 10 1 5 357 352 355 352 352 349 349 347 348 347 345 342 338 331 322 313 308 298 286 268 253 244 238 232 229 228 228 227 226 226 227 224 224 224 224 224 224 220 218 216
8 360 358 349 350 354 13 351 8 1 355 353 352 352 352 352 352 352 352 351 349 347 344 335 324 315 301 287 271 257 247 239 231 227 227 226 225 223 227 227 226 223 224 226 225 228 222 218 220
346 337 323 337 345 355 8 2 5 1 355 354 355 354 354 355 354 355 356 356 355 355 353 347 337 327 309 295 277 264 252 241 231 226 225 224 224 223 225 226 226 225 224 225 225 228 227 226 226
353 353 11 341 347 357 2 357 355 355 357 355 353 354 356 357 358 358 359 0 1 2 2 1 355 344 328 311 291 272 259 242 231 226 223 224 223 222 223 224 225 224 224 225 225 228 227 227 228
353 1 10 347 351 342 359 356 357 358 359 359 357 356 356 358 359 359 1 2 4 6 8 10 9 6 355 338 316 289 267 247 231 224 221 221 220 220 222 223 224 224 223 222 224 228 228 229 227
353 1 356 341 324 342 2 358 356 0 0 0 359 359 359 0 1 3 4 5 6 8 11 14 16 16 13 3 343 315 285 257 233 223 220 218 218 218 220 222 221 223 222 222 222 223 228 226 228
344 348 343 351 348 348 355 346 357 -0 360 360 1 2 1 2 4 5 7 8 8 10 12 15 18 19 17 13 5 355 328 275 234 223 218 217 216 217 218 219 220 221 221 220 223 228 227 229 227
334 337 341 339 343 343 345 357 355 357 359 359 360 2 2 3 5 6 8 10 12 12 13 15 17 19 20 19 20 15 5 329 251 222 216 214 215 215 216 217 218 218 219 218 221 224 222 220 224
325 322 324 334 350 331 335 336 355 356 358 358 358 1 3 4 6 8 9 12 13 14 14 15 17 18 20 23 22 21 16 360 289 225 213 212 213 213 214 214 215 215 217 219 219 220 221 223 225